Location: La Sioule Rivi�re
(46.3664°N, 3.3197°E)
Time: 12:42:41
(UTC+00:00)

Envisat - Pass Details

Date: 29 October 2020
Orbit: 764 x 766 km, 98.1° (Epoch: 23 November)

Event Time Altitude Azimuth Distance (km) Brightness Sun altitude
Rises 17:01:07 0° 172° (S) 3,219 6.3 -5.0°
Reaches altitude 10° 17:03:25 10° 175° (S) 2,297 5.6 -5.4°
Maximum altitude 17:08:28 67° 258° (WSW) 830 3.5 -6.2°
Drops below altitude 10° 17:13:33 10° 342° (NNW) 2,314 5.6 -7.1°
Sets 17:15:53 0° 345° (NNW) 3,244 6.3 -7.5°
